Temp
14 13 13 13 13 12 12 12 11 11 11 11 11 11 10 10 10 10 10 10 9 9 9 9 9 9 9 9 9 9 8 8 8 8 8 8 8 8 8 8 8 8 7 7 7 7 7 7 7 7 6 6 6 6 6 6 6 6 6 5 5 5 5 5 5 5 5 5 5
13 13 13 12 12 12 12 11 11 11 11 11 11 10 10 10 10 10 10 9 9 9 9 9 9 9 9 9 8 8 8 8 8 8 8 8 8 8 7 7 7 7 7 7 7 7 7 6 6 6 6 6 6 6 5 5 5 5 5 5 5 5 5 5 5 5 5 5 5
13 13 12 12 12 11 11 11 11 11 11 10 10 10 10 10 10 10 9 9 9 9 9 9 9 9 8 8 8 8 8 8 8 8 8 7 7 7 7 7 7 7 7 7 6 6 6 6 6 6 5 5 5 5 5 5 5 5 5 5 5 5 4 4 4 4 4 4 4
12 12 12 12 11 11 11 11 11 11 10 10 10 10 10 10 9 9 9 9 9 9 9 9 8 8 8 8 8 8 8 8 7 7 7 7 7 7 7 7 7 6 6 6 6 6 6 6 5 5 5 5 5 5 4 4 4 4 4 4 4 4 4 4 4 4 4 4 4
12 12 12 11 11 11 11 11 11 10 10 10 10 10 10 10 9 9 9 9 9 9 9 8 8 8 8 8 8 8 7 7 7 7 7 7 7 7 6 6 6 6 6 6 6 5 5 5 5 5 5 4 4 4 4 4 4 4 4 4 4 4 4 4 4 4 4 3 3
12 12 11 11 11 11 11 10 10 10 10 10 10 10 10 10 9 9 9 9 9 9 8 8 8 8 8 8 7 7 7 7 7 7 7 6 6 6 6 6 6 6 6 5 5 5 5 5 5 5 4 4 4 4 4 4 4 3 3 3 3 3 3 3 3 3 3 3 3
12 11 11 11 11 10 10 10 10 10 10 10 10 10 10 9 9 9 9 9 9 9 8 8 8 8 8 7 7 7 7 7 7 6 6 6 6 6 6 5 5 5 5 5 5 5 5 5 4 4 4 4 4 3 3 3 3 3 3 3 3 3 3 3 3 3 3 3 3
11 11 11 10 10 10 10 10 10 10 10 10 10 10 9 9 9 9 9 9 8 8 8 8 8 7 7 7 7 7 7 6 6 6 6 6 5 5 5 5 5 5 5 5 5 5 4 4 4 4 4 3 3 3 3 3 3 3 3 3 3 3 3 3 3 3 2 2 2
11 10 10 10 10 10 10 10 10 10 10 10 10 9 9 9 9 9 8 8 8 8 8 8 7 7 7 7 7 6 6 6 6 6 5 5 5 5 5 5 5 5 5 4 4 4 4 4 4 4 3 3 3 3 3 3 3 3 3 3 2 2 2 2 2 2 2 2 2
10 10 10 10 10 10 10 10 10 10 10 10 9 9 9 9 8 8 8 8 8 8 7 7 7 7 7 6 6 6 6 6 5 5 5 5 5 5 5 5 4 4 4 4 4 4 4 4 3 3 3 3 3 3 3 3 3 3 2 2 2 2 2 2 2 2 2 2 2
10 10 10 10 10 10 10 10 10 10 9 9 9 9 9 8 8 8 8 8 7 7 7 7 7 6 6 6 6 6 5 5 5 5 5 5 5 5 4 4 4 4 4 4 4 4 4 3 3 3 3 3 3 3 3 3 2 2 2 2 2 2 2 2 2 2 2 2 1
10 10 10 10 10 10 10 9 9 9 9 9 9 8 8 8 8 8 7 7 7 7 7 6 6 6 6 6 5 5 5 5 5 5 5 4 4 4 4 4 4 4 4 4 4 3 3 3 3 3 3 3 3 2 2 2 2 2 2 2 2 2 2 2 2 2 2 1 1
10 10 10 10 10 9 9 9 9 9 9 9 8 8 8 8 7 7 7 7 7 6 6 6 6 6 5 5 5 5 5 5 4 4 4 4 4 4 4 4 4 4 4 3 3 3 3 3 3 3 3 2 2 2 2 2 2 2 2 2 2 2 2 2 2 2 1 1 1
10 10 10 9 9 9 9 9 9 9 8 8 8 8 8 7 7 7 7 6 6 6 6 6 5 5 5 5 5 5 4 4 4 4 4 4 4 4 4 4 4 3 3 3 3 3 3 3 3 2 2 2 2 2 2 2 2 2 2 2 2 1 1 1 2 1 1 1 1
10 9 9 9 9 9 9 9 8 8 8 8 8 7 7 7 7 6 6 6 6 6 5 5 5 5 5 5 5 4 4 4 4 4 4 4 4 4 4 3 3 3 3 3 3 3 3 2 2 2 2 2 2 2 2 2 2 2 2 2 1 1 1 1 1 1 1 1 1
9 9 9 9 9 9 8 8 8 8 8 7 7 7 7 7 6 6 6 6 5 5 5 5 5 5 5 4 4 4 4 4 4 4 4 4 4 3 3 3 3 3 3 3 3 2 2 2 2 2 2 2 2 2 2 2 2 2 2 2 2 1 1 1 1 1 1 1 1
9 9 9 9 9 8 8 8 8 7 7 7 7 7 6 6 6 6 6 5 5 5 5 5 5 4 4 4 4 4 4 4 4 4 4 3 3 3 3 3 3 3 3 2 2 2 2 2 2 2 2 2 2 2 2 2 2 2 2 2 2 2 2 1 1 1 1 1 1
9 9 9 9 8 8 8 8 7 7 7 7 7 6 6 6 6 6 5 5 5 5 5 5 4 4 4 4 4 4 4 4 4 4 3 3 3 3 3 3 3 3 2 2 2 2 2 2 2 2 2 2 2 1 1 1 2 2 2 2 2 2 1 1 1 1 1 1 1
9 9 9 8 8 8 8 7 7 7 7 6 6 6 6 6 5 5 5 5 5 5 5 4 4 4 4 4 4 4 4 4 4 3 3 3 3 3 3 3 2 2 2 2 2 2 2 2 2 2 2 1 1 1 1 1 1 1 2 2 2 1 1 1 1 1 1 1 1
9 9 8 8 8 8 7 7 7 7 6 6 6 6 6 5 5 5 5 5 5 5 4 4 4 4 4 4 4 4 4 3 3 3 3 3 3 3 3 2 2 2 2 2 2 2 2 2 2 2 1 1 1 1 1 1 1 1 1 1 1 1 1 1 1 1 1 1 1
9 8 8 8 8 7 7 7 7 6 6 6 6 6 5 5 5 5 5 5 5 5 4 4 4 4 4 4 4 4 3 3 3 3 3 3 3 3 2 2 2 2 2 2 2 2 2 2 1 1 1 1 1 1 1 1 1 1 1 1 1 1 1 1 1 1 1 1 1
8 8 8 8 8 7 7 7 6 6 6 6 6 6 5 5 5 5 5 5 5 4 4 4 4 4 4 4 4 3 3 3 3 3 3 3 3 2 2 2 2 2 2 2 2 2 1 1 1 1 1 1 1 1 1 1 1 1 1 1 1 1 1 1 1 1 1 1 1
8 8 8 8 7 7 7 7 6 6 6 6 6 5 5 5 5 5 5 5 5 4 4 4 4 4 4 4 3 3 3 3 3 3 3 3 2 2 2 2 2 2 2 2 1 1 1 1 1 1 1 1 1 1 1 2 2 2 2 1 1 1 1 1 1 1 1 1 1
8 8 8 7 7 7 7 6 6 6 6 6 6 5 5 5 5 5 5 5 4 4 4 4 4 4 4 3 3 3 3 3 3 3 3 2 2 2 2 2 2 2 1 1 1 1 1 1 1 1 1 1 1 1 2 2 2 2 2 1 1 1 1 1 1 1 1 1 1
8 8 7 7 7 7 6 6 6 6 6 6 6 5 5 5 5 5 5 4 4 4 4 4 4 4 4 3 3 3 3 3 3 2 2 2 2 2 2 2 2 1 1 1 1 1 1 1 1 1 1 1 1 2 2 2 2 2 2 1 1 1 1 1 1 1 1 1 0
8 7 7 7 7 7 6 6 6 6 6 6 6 5 5 5 5 5 5 4 4 4 4 4 4 4 3 3 3 3 3 3 2 2 2 2 2 2 2 2 1 1 1 1 1 1 1 1 1 1 1 1 1 1 2 2 2 2 2 1 1 1 1 1 1 1 1 0 0
7 7 7 7 7 6 6 6 6 6 6 6 6 5 5 5 5 5 4 4 4 4 4 4 4 3 3 3 3 3 3 3 2 2 2 2 2 2 2 1 1 1 1 1 1 1 1 1 1 1 1 1 1 2 2 2 2 1 1 1 1 1 1 1 1 1 0 0 0
7 7 7 7 6 6 6 6 6 6 6 6 6 5 5 5 5 4 4 4 4 4 4 4 3 3 3 3 3 3 3 2 2 2 2 2 2 2 1 1 1 1 1 1 1 1 1 1 1 1 1 1 2 2 2 1 1 1 1 1 1 1 1 1 1 0 0 0 0
7 7 7 7 6 6 6 6 6 6 6 6 5 5 5 5 5 4 4 4 4 4 4 3 3 3 3 3 3 3 2 2 2 2 2 2 2 1 1 1 1 1 1 1 1 1 1 1 1 1 1 2 2 2 1 1 1 1 1 1 1 1 1 1 0 0 0 0 0
7 7 7 7 6 6 6 6 6 6 6 6 5 5 5 5 5 4 4 4 4 4 4 3 3 3 3 3 3 2 2 2 2 2 2 2 1 1 1 1 1 1 1 1 0 0 1 1 1 1 1 1 1 1 1 1 1 1 1 1 1 1 1 1 0 0 0 0 0
7 7 7 6 6 6 6 6 6 6 6 5 5 5 5 5 4 4 4 4 4 4 3 3 3 3 3 3 2 2 2 2 2 2 1 1 1 1 1 1 1 1 1 0 0 0 1 1 1 1 1 1 1 1 1 1 1 1 1 1 1 1 1 0 0 0 0 0 0
7 7 7 6 6 6 6 6 6 6 5 5 5 5 5 4 4 4 4 4 4 3 3 3 3 3 2 2 2 2 2 2 2 1 1 1 1 1 1 1 1 1 0 0 0 0 1 1 1 1 1 1 1 1 1 1 1 1 1 1 1 1 0 0 0 0 0 0 0
7 7 6 6 6 6 6 6 6 5 5 5 5 5 4 4 4 4 4 4 3 3 3 3 3 2 2 2 2 2 2 2 1 1 1 1 1 1 1 1 1 0 0 0 0 0 1 1 1 1 1 1 1 1 1 1 1 1 1 1 0 0 0 0 0 0 0 0 0
7 7 6 6 6 6 6 6 5 5 5 5 5 4 4 4 4 4 4 4 3 3 3 3 2 2 2 2 2 2 1 1 1 1 1 1 1 1 1 0 0 0 0 0 0 0 0 1 1 1 1 1 1 1 1 1 0 0 0 0 0 0 0 0 0 0 0 0 0
7 6 6 6 6 6 5 5 5 5 5 5 4 4 4 4 4 4 4 3 3 3 3 2 2 2 2 2 2 1 1 1 1 1 1 1 1 0 0 0 0 0 0 0 0 0 0 0 1 1 1 1 1 1 0 0 0 0 0 0 -0 -0 -0 -0 -0 -0 0 -0 -0
6 6 6 6 6 5 5 5 5 5 5 4 4 4 4 4 4 4 3 3 3 3 2 2 2 2 2 2 1 1 1 1 1 1 1 1 0 0 0 0 0 0 0 -0 -0 0 0 0 0 0 1 0 0 0 0 0 0 -0 -0 -0 -0 -0 -1 -1 -0 -0 -0 -0 -0
6 6 6 6 5 5 5 5 5 5 4 4 4 4 4 4 4 3 3 3 3 2 2 2 2 2 2 1 1 1 1 1 1 1 0 0 0 0 0 -0 -0 0 -0 -0 -0 -0 -0 0 0 0 0 0 0 0 0 -0 -0 -0 -0 -1 -1 -1 -1 -1 -1 -1 -1 -1 -0
6 6 6 5 5 5 5 5 5 4 4 4 4 4 4 3 3 3 3 3 2 2 2 2 2 2 2 1 1 1 1 1 1 0 0 0 0 0 -0 -0 -0 -0 -0 -0 -0 -0 -0 -0 -0 -0 0 0 0 0 -0 -0 -0 -1 -1 -1 -1 -1 -1 -1 -1 -1 -1 -1 -0
6 6 5 5 5 5 5 5 5 4 4 4 4 4 4 3 3 3 3 2 2 2 2 2 2 2 1 1 1 1 1 1 0 0 0 0 -0 -0 -0 -0 -0 -0 -0 -0 -0 -0 -0 -0 -0 -0 -0 0 0 -0 -0 -1 -1 -1 -1 -1 -1 -1 -1 -1 -1 -1 -1 -1 -0
6 5 5 5 5 5 5 5 4 4 4 4 4 3 3 3 3 3 3 2 2 2 2 2 1 1 1 1 1 1 0 0 0 0 0 -0 -0 -0 -0 -0 -0 -0 -0 -0 -0 -1 -1 -1 -0 -0 -0 -0 -0 -0 -0 -1 -1 -1 -1 -1 -1 -1 -1 -1 -1 -1 -1 -1 -0
6 5 5 5 5 5 5 4 4 4 4 4 3 3 3 3 3 3 2 2 2 2 2 1 1 1 1 1 1 0 0 0 0 0 -0 -0 -0 -0 -0 -1 -1 -1 -0 -0 -0 -1 -1 -1 -1 -0 -0 -0 -0 -0 -1 -1 -1 -1 -1 -1 -1 -2 -1 -1 -1 -1 -1 -0 -0
Height
835 836 837 838 838 839 839 840 840 840 841 841 841 841 841 841 841 840 840 840 839 839 838 838 838 837 837 836 836 835 834 834 833 833 832 831 830 830 829 828 827 826 825 825 824 823 822 822 821 820 819 818 817 817 816 815 815 814 813 813 812 812 811 810 810 809 808 808 807
835 836 836 837 838 838 838 839 839 839 840 840 840 840 840 840 840 840 839 839 838 838 838 837 837 836 836 835 835 834 833 833 832 831 830 830 829 828 827 827 826 825 824 823 822 822 821 820 819 818 817 816 816 815 814 814 813 813 812 811 811 810 810 809 808 808 807 807 806
834 835 836 837 837 837 838 838 838 838 839 839 839 839 839 839 839 839 838 838 838 837 837 836 836 835 834 834 833 833 832 831 831 830 829 828 828 827 826 825 824 823 823 822 821 820 819 818 818 817 816 815 814 813 813 812 812 811 811 810 809 809 808 808 807 806 806 805 804
834 835 836 836 837 837 837 837 837 838 838 838 838 839 839 838 838 838 838 837 837 836 836 835 835 834 833 833 832 832 831 830 829 828 828 827 826 825 824 823 823 822 821 820 820 819 818 817 816 815 814 813 813 812 811 811 810 810 809 809 808 808 807 806 805 805 804 803 803
834 835 836 836 836 836 836 836 836 837 837 838 838 838 838 838 838 837 837 836 836 835 835 834 833 833 832 832 831 830 829 829 828 827 826 825 824 824 823 822 821 821 820 819 818 818 817 816 815 814 813 813 812 811 810 810 809 808 808 807 807 806 805 804 804 803 803 802 801
834 835 835 835 835 835 835 836 836 836 836 837 837 837 837 837 837 836 836 835 835 834 833 833 832 832 831 830 829 829 828 827 827 826 825 824 823 822 822 821 820 819 818 818 817 816 816 815 813 813 812 811 810 810 809 809 808 807 806 805 805 804 804 803 802 802 801 800 799
834 834 835 835 835 835 835 835 835 836 836 836 836 836 836 836 836 835 835 834 833 833 832 832 831 830 829 829 828 827 826 826 825 824 823 823 822 821 820 820 819 818 818 817 816 815 814 813 813 811 810 810 809 808 808 807 807 806 805 804 803 803 802 801 801 800 799 798 798
833 834 834 835 835 835 835 835 835 835 835 835 835 835 835 835 834 834 833 833 832 832 831 830 830 829 828 827 827 826 825 824 823 823 822 821 821 820 819 818 818 817 816 816 815 814 813 812 811 810 809 808 808 807 806 806 805 804 803 802 801 801 800 800 799 798 797 797 796
833 834 834 834 834 835 835 834 835 835 835 835 835 834 834 834 833 833 832 832 831 830 830 829 828 828 827 826 825 825 824 823 822 822 821 820 819 819 818 817 816 816 815 814 813 813 812 811 810 809 808 808 807 806 805 804 803 802 801 800 799 799 798 798 797 796 795 795 794
833 833 834 834 834 834 834 834 834 834 834 834 834 833 833 833 832 832 831 830 830 829 828 828 827 827 826 825 824 824 823 822 821 820 820 819 818 818 817 816 815 814 813 813 812 811 810 809 808 808 807 806 805 804 803 803 802 801 800 799 798 797 796 796 795 794 793 793 792
833 833 833 834 834 834 834 834 834 833 833 833 833 833 832 832 831 831 830 829 828 828 828 827 826 825 825 824 823 823 822 821 820 819 818 818 817 816 816 815 814 813 812 812 811 810 809 808 807 806 805 804 804 803 802 801 800 799 798 797 796 795 794 793 793 793 792 791 790
832 833 833 833 833 833 833 833 833 833 833 832 832 832 831 831 830 829 829 828 828 827 827 826 825 824 824 823 822 822 821 820 819 818 817 817 816 815 814 813 813 812 811 810 809 809 808 807 806 805 803 803 802 801 800 799 798 798 796 795 795 794 793 792 791 791 790 789 788
832 832 833 833 833 833 833 833 832 832 832 831 831 830 830 829 829 828 828 827 827 826 826 825 824 824 823 822 821 820 819 819 818 817 816 815 814 814 813 812 811 811 810 809 808 807 806 805 804 803 802 801 800 800 799 798 797 796 795 793 793 792 791 790 789 789 788 788 787
831 832 832 832 832 832 832 832 831 831 831 830 830 829 829 828 828 828 827 826 826 825 825 824 823 823 822 821 820 819 818 818 817 816 815 814 813 812 812 811 810 809 808 808 807 806 805 804 803 802 801 800 799 798 797 797 795 794 793 792 791 790 789 788 788 787 786 786 785
831 831 832 832 832 831 831 831 830 830 830 829 829 828 828 828 827 827 826 826 825 824 824 823 822 822 821 820 819 818 817 816 815 814 813 813 812 811 810 809 808 808 807 806 805 804 804 803 802 800 799 798 797 796 795 795 794 793 792 791 789 788 788 787 786 785 785 784 783
830 831 831 831 831 831 830 830 830 829 829 828 828 828 827 827 826 826 825 825 824 823 823 822 821 820 819 819 818 817 816 815 814 813 812 811 810 809 809 808 807 806 805 804 803 803 802 801 800 799 798 797 795 794 793 793 792 791 790 789 788 787 786 785 784 784 783 783 782
830 830 830 830 830 830 830 829 829 828 828 828 827 827 826 826 826 825 825 824 823 822 822 821 820 819 818 817 816 815 814 813 812 812 811 810 809 808 807 806 806 805 804 803 802 801 800 799 798 798 796 795 794 793 792 791 790 789 788 787 786 785 784 783 783 782 782 781 780
829 829 829 829 829 829 829 828 828 828 827 827 826 826 826 825 825 824 824 823 822 821 820 819 818 818 817 816 815 814 813 812 811 810 809 808 808 807 806 805 804 803 803 802 801 799 798 798 797 796 794 793 792 791 790 789 788 787 786 785 784 783 783 782 781 781 780 779 778
828 828 828 828 828 828 828 828 827 827 826 826 825 825 825 824 824 823 823 822 821 820 819 818 817 816 815 814 813 813 812 811 810 809 808 807 806 806 805 804 803 802 801 800 799 798 797 796 795 794 793 791 790 789 788 787 786 785 784 783 782 781 781 780 779 779 778 777 776
828 828 828 828 828 828 827 827 826 826 825 825 824 824 824 823 823 822 821 821 820 819 818 817 816 815 814 813 812 811 810 809 808 808 807 806 805 804 803 802 801 800 799 798 798 796 795 794 793 792 791 790 788 787 786 785 784 783 782 781 780 779 779 778 778 777 776 775 774
827 827 827 827 827 826 826 825 825 824 824 824 823 823 823 822 822 821 820 819 818 818 817 815 814 813 812 811 810 809 808 808 807 806 805 804 804 803 802 801 800 799 798 797 796 795 794 793 791 790 789 788 787 786 784 783 782 781 780 779 778 778 777 776 776 775 774 773 772
826 826 826 826 826 825 825 824 824 823 823 823 823 822 822 821 820 819 819 818 817 816 815 814 813 812 811 810 809 808 807 806 806 805 804 803 802 802 801 800 798 798 796 795 794 793 792 791 789 788 787 786 785 784 783 782 780 779 778 777 776 776 775 774 774 773 772 771 770
825 825 825 825 824 824 823 823 823 823 822 822 821 821 820 819 819 818 817 816 815 814 813 813 811 810 809 808 808 807 806 805 804 803 803 802 801 800 799 798 797 796 795 794 793 792 790 789 788 787 786 785 783 782 781 780 779 778 776 775 774 773 773 772 772 771 770 769 769
824 824 824 823 823 823 823 822 822 821 821 820 820 819 819 818 817 817 816 815 814 813 812 811 810 809 808 807 806 805 804 803 803 802 801 800 799 798 798 797 795 794 793 792 791 790 789 788 787 785 784 783 782 781 780 778 777 776 775 773 773 772 771 770 770 769 768 768 767
823 823 823 823 822 822 821 821 820 820 820 819 819 818 817 817 816 815 814 813 812 811 810 809 808 807 806 805 805 804 803 802 801 800 799 798 798 797 796 795 794 793 792 791 790 789 788 787 786 785 783 782 781 779 778 777 776 775 773 772 771 770 769 768 767 767 767 766 765
822 822 822 821 821 820 820 820 819 819 818 818 817 817 816 815 814 813 813 812 811 810 809 808 807 806 805 804 803 802 802 801 800 799 798 797 796 795 794 793 792 791 790 789 788 788 787 786 785 783 782 780 779 778 776 775 774 773 772 771 769 768 767 766 765 765 764 764 763
821 821 820 820 820 819 819 819 818 818 817 817 816 815 814 813 813 812 811 810 809 808 807 806 805 804 803 803 802 801 800 799 798 798 797 796 795 794 793 792 790 789 788 788 787 786 785 784 783 782 781 779 778 776 774 773 772 771 770 769 768 767 766 764 763 763 762 761 761
820 819 819 819 818 818 818 818 817 816 816 815 814 813 813 812 811 810 809 808 807 806 805 804 803 803 802 801 800 799 799 798 797 796 795 794 793 793 791 790 789 788 787 786 785 784 783 782 781 780 779 778 776 774 773 772 770 769 768 767 766 765 764 763 762 761 760 759 758
818 818 818 818 817 817 817 816 816 815 814 813 813 812 811 810 809 808 808 807 806 804 803 803 802 801 800 799 799 798 797 797 796 795 794 793 792 791 790 788 787 786 785 785 784 783 782 780 779 778 777 776 774 773 771 770 768 767 766 765 764 763 762 761 760 759 758 758 756
818 817 817 817 816 816 815 815 814 813 813 812 811 810 809 808 808 807 806 805 804 803 802 801 800 800 799 798 798 797 796 795 794 793 793 791 790 789 788 787 785 784 783 783 782 781 780 778 777 776 775 774 773 771 769 768 767 766 764 763 762 761 760 759 758 758 757 756 754
816 816 816 815 815 814 814 813 813 812 811 810 809 808 808 807 806 805 804 803 803 802 801 800 799 798 798 797 796 795 794 793 793 792 791 790 789 787 786 785 784 783 782 781 780 779 778 777 775 774 773 772 771 769 768 766 765 764 763 761 760 759 759 758 757 756 755 753 752
815 815 814 814 813 813 813 812 811 810 810 809 808 807 806 805 804 803 803 802 801 800 799 798 798 797 796 795 795 794 793 792 791 790 789 788 787 786 784 783 782 781 780 779 778 778 776 775 774 773 771 770 769 768 766 765 763 762 761 760 759 758 757 756 755 754 753 752 750
814 814 813 813 812 812 811 810 810 809 808 807 806 805 804 803 803 802 801 801 800 799 798 797 797 796 795 794 793 792 791 790 789 788 788 787 786 784 783 781 780 779 778 778 777 776 774 773 772 771 769 768 767 765 764 763 762 760 759 758 757 756 755 754 753 752 751 749 748
813 813 812 812 811 810 809 809 808 807 806 805 804 804 803 802 801 801 800 799 799 798 797 796 796 795 794 793 792 791 790 788 788 787 786 785 784 783 781 779 778 778 777 776 775 774 773 771 770 769 768 766 765 763 762 761 760 758 757 756 755 754 753 752 751 750 748 747 746
812 811 811 810 809 808 808 807 806 806 805 804 803 802 802 801 800 799 798 798 797 797 796 795 794 793 792 791 791 789 788 787 786 785 784 783 782 781 779 778 776 776 775 774 773 772 771 770 768 767 766 764 763 761 760 759 758 756 755 754 753 752 751 750 749 748 747 745 744
810 810 809 808 808 807 806 805 805 804 803 802 801 801 800 799 798 798 798 797 796 795 794 793 793 792 791 790 789 788 787 786 784 783 782 781 780 779 777 776 774 773 773 773 771 770 769 768 767 765 764 763 761 759 758 757 756 754 753 752 751 750 749 748 747 746 744 743 742
809 808 808 807 806 805 805 804 803 802 801 801 800 799 798 798 797 797 796 796 795 794 793 792 791 790 789 788 787 786 785 784 783 782 780 779 778 777 776 774 773 772 771 770 769 768 767 766 765 763 762 761 759 758 756 755 754 753 751 750 749 748 747 746 745 743 742 741 739
807 807 806 805 804 804 803 802 802 801 800 799 798 798 797 797 796 795 795 794 793 792 791 790 789 788 788 787 785 784 783 782 782 780 779 778 777 776 774 772 771 770 769 768 768 767 765 764 763 762 761 759 758 756 755 753 752 751 750 748 747 746 746 745 743 742 740 739 738
806 805 804 804 803 802 802 801 800 799 798 798 797 796 796 795 795 794 793 793 792 791 790 789 788 787 786 785 784 782 781 780 780 779 778 776 775 774 773 771 769 768 767 767 766 765 763 763 761 760 759 758 756 755 753 752 750 749 748 747 746 744 743 743 742 740 738 737 735
804 803 803 802 801 801 800 799 798 798 797 796 796 795 794 794 793 793 792 791 791 790 789 788 786 785 784 783 782 781 779 778 777 777 776 774 773 772 771 770 768 766 765 765 764 763 762 761 760 759 758 756 755 753 752 751 749 748 746 745 744 743 741 740 740 738 737 735 733
803 802 801 800 800 799 798 797 797 796 796 795 794 794 793 793 792 791 790 790 789 788 787 786 785 783 783 782 780 779 778 776 775 774 773 773 771 770 769 768 766 765 763 763 762 761 760 759 758 757 756 755 753 752 751 749 748 746 745 744 743 741 740 738 737 736 735 734 732
Wind_Speed
9 9 8 7 7 5 4 2 1 1 2 3 4 6 7 8 9 10 11 12 13 14 15 15 16 16 17 17 18 19 20 20 21 21 22 22 23 23 24 24 24 25 25 25 25 25 26 26 26 26 26 26 26 26 26 25 25 25 24 24 24 23 23 23 24 24 24 24 24
10 9 8 7 6 5 3 2 1 1 2 4 5 6 8 9 10 11 12 13 14 14 15 16 16 17 18 18 19 20 20 21 22 22 23 23 24 24 24 25 25 25 25 25 26 26 26 26 26 27 27 27 27 27 26 26 25 24 24 24 24 23 23 23 24 24 24 24 24
10 9 8 7 6 5 4 3 2 2 3 4 5 7 8 9 10 12 13 13 14 15 16 16 17 18 19 19 20 21 21 22 23 23 24 24 24 24 25 25 25 25 25 25 25 25 25 26 26 27 27 27 27 27 26 26 25 24 24 24 24 24 24 24 24 24 24 24 24
10 9 8 7 6 5 4 2 2 2 3 4 6 7 8 10 11 12 13 14 15 15 16 17 18 19 19 20 21 21 22 22 23 24 24 24 24 24 24 24 24 24 24 24 25 25 25 26 26 27 27 27 27 26 26 25 24 24 24 24 24 24 24 24 24 24 24 24 24
10 9 7 6 5 4 3 2 1 2 3 5 6 7 9 10 11 12 13 14 15 16 17 17 18 19 20 21 21 22 22 23 23 24 24 24 24 24 24 24 24 24 24 24 25 25 25 26 27 27 27 27 26 26 25 25 24 24 25 25 25 25 25 25 25 25 25 24 24
9 7 6 5 4 3 2 1 1 2 4 5 7 8 9 11 12 13 14 15 16 16 17 18 19 20 20 21 22 22 23 23 23 23 23 23 23 23 23 23 23 24 24 25 25 25 26 27 28 28 27 26 26 25 25 25 25 25 26 26 26 26 25 25 25 25 25 25 25
8 6 6 5 4 3 2 1 2 3 4 6 7 9 10 11 12 13 14 15 16 17 17 18 19 20 21 21 22 22 22 22 22 22 22 22 23 23 23 24 24 24 25 25 26 26 27 27 28 28 27 26 26 25 25 25 26 27 27 27 27 26 26 26 26 26 26 26 26
8 7 5 4 3 2 2 1 2 3 5 6 7 9 10 11 13 14 15 15 16 17 18 18 19 19 20 20 21 21 21 21 21 21 22 22 23 23 24 24 25 25 26 26 26 27 27 28 28 28 27 26 26 26 26 27 27 28 28 28 28 27 26 26 26 27 27 27 28
8 6 5 4 3 2 1 2 2 4 5 6 8 9 10 11 12 14 14 15 16 16 17 18 18 18 19 19 19 20 20 20 21 21 22 22 23 24 24 25 26 26 26 26 27 27 28 28 28 27 27 26 27 27 28 28 28 28 28 28 28 27 27 27 28 28 28 28 28
7 6 5 4 2 1 1 2 3 4 5 6 7 9 10 11 12 13 14 15 15 16 16 16 17 17 18 18 18 19 19 20 21 22 22 23 24 24 25 26 26 27 27 27 27 27 28 28 28 27 27 27 28 28 29 28 28 28 28 28 28 28 29 29 28 28 28 28 28
7 5 4 3 2 1 1 2 3 4 6 7 8 9 10 11 12 12 13 14 14 15 15 15 16 17 17 18 18 19 19 20 21 22 23 23 24 25 25 26 26 27 27 27 27 27 28 28 28 28 28 28 28 28 28 28 28 28 29 29 29 29 29 29 29 28 28 28 27
6 5 4 3 2 1 2 3 4 6 7 8 8 9 10 10 11 12 12 13 13 14 14 14 15 16 17 17 18 19 19 20 21 22 23 24 25 25 26 26 26 27 27 27 27 27 28 28 28 28 29 29 28 28 28 28 28 29 29 29 29 29 29 29 29 28 28 27 27
6 5 4 3 2 3 4 5 6 7 8 8 9 9 9 10 10 11 12 12 13 13 14 14 15 16 16 17 18 19 20 21 22 23 23 24 25 25 26 26 27 27 27 28 27 28 28 28 28 28 29 29 28 28 28 28 28 29 29 29 29 29 29 29 29 28 28 28 28
6 5 4 3 3 5 6 7 8 8 9 9 9 9 9 10 10 11 11 12 13 13 14 15 15 16 16 18 19 20 20 21 22 23 24 25 25 26 26 27 27 27 28 28 28 28 28 28 28 28 28 29 29 29 28 28 28 29 29 29 29 29 29 29 28 28 28 28 28
6 4 4 4 5 6 7 8 8 9 9 9 9 9 10 10 10 11 11 12 13 14 14 15 16 16 17 18 19 20 21 22 23 24 25 25 26 26 27 27 27 28 28 28 28 28 28 28 28 28 28 29 29 29 29 29 28 28 28 28 28 29 29 28 28 27 27 27 27
5 4 4 4 5 6 7 8 9 9 9 9 10 10 10 11 11 11 12 13 14 14 15 16 17 18 18 19 20 21 22 23 24 24 25 26 26 27 27 27 28 28 28 28 29 29 29 28 28 29 29 29 29 29 29 29 28 28 28 28 28 28 28 28 27 27 27 27 27
5 4 4 5 5 6 7 8 9 9 10 10 10 11 11 12 12 12 13 14 14 15 16 17 18 19 20 20 21 22 23 24 24 25 26 26 27 27 27 28 28 28 28 29 29 29 29 29 29 29 29 29 29 29 29 28 28 28 27 27 27 28 28 27 27 26 26 26 26
4 4 4 5 5 6 7 8 9 9 10 11 11 12 12 12 13 13 14 14 15 16 17 18 18 19 20 21 22 23 23 24 25 26 26 26 27 27 28 28 28 28 29 29 29 30 30 30 29 29 29 29 29 28 28 27 27 27 27 27 28 27 27 27 26 26 26 26 26
4 3 4 4 5 6 7 8 9 10 10 11 12 12 13 13 14 14 15 15 16 16 18 19 20 20 21 22 23 24 24 25 25 26 26 27 27 27 28 28 28 29 29 29 29 30 30 30 29 29 29 28 28 27 27 27 27 27 28 28 28 27 27 26 26 26 26 26 26
3 3 3 4 5 6 7 8 9 10 11 11 12 12 13 13 14 15 15 16 17 17 18 19 21 21 22 23 24 24 25 25 26 26 27 27 27 28 28 28 29 29 29 29 29 29 29 29 29 29 28 28 27 27 27 27 28 28 28 28 28 27 26 26 26 26 26 26 26
2 3 3 4 5 6 7 8 9 10 11 11 12 12 13 14 14 15 16 17 18 18 19 20 21 22 23 24 25 25 25 26 26 26 27 27 27 28 28 28 29 29 29 29 29 29 29 29 29 28 28 27 27 27 28 28 28 29 29 28 28 27 26 26 26 26 26 26 26
2 3 4 5 6 7 8 8 9 10 11 11 12 13 14 14 15 16 16 17 18 19 20 21 22 23 24 24 25 26 26 26 26 26 27 27 28 28 28 29 29 29 30 29 29 30 30 29 28 27 27 27 27 28 28 29 29 29 29 28 28 27 27 26 26 26 25 25 25
2 3 4 5 6 7 8 9 10 11 11 12 13 14 14 15 16 16 17 18 19 19 21 22 23 23 24 25 25 26 26 26 27 27 27 27 28 29 29 29 29 29 29 29 29 29 29 28 27 27 27 27 28 28 29 28 29 29 29 29 29 28 28 27 26 25 25 24 24
3 4 5 6 7 8 9 10 11 12 12 13 14 15 15 16 16 17 17 18 19 20 21 22 23 24 25 25 25 26 26 27 27 27 28 28 28 29 29 29 29 29 29 29 29 29 27 26 26 26 27 27 28 28 28 28 28 28 29 29 29 29 28 28 26 25 25 24 24
3 4 5 6 7 9 10 11 12 13 14 15 15 16 16 16 17 17 18 19 20 21 22 23 24 25 25 25 25 26 26 26 27 28 28 29 29 29 30 30 29 29 29 29 29 27 25 24 25 26 27 27 28 28 28 28 28 28 29 29 29 29 28 28 27 26 25 24 24
4 5 6 7 8 9 11 12 13 14 15 15 16 16 16 17 17 18 18 19 20 22 23 24 25 25 25 26 26 26 26 27 27 28 28 29 29 30 30 30 29 29 30 30 28 26 25 25 25 25 26 27 27 28 28 28 28 29 28 28 28 27 27 27 27 26 25 25 25
5 6 7 8 9 10 11 12 14 15 15 16 16 17 17 17 17 18 19 20 21 22 24 24 25 25 25 26 26 26 27 27 27 28 28 28 29 29 30 30 30 30 30 29 28 26 26 26 26 26 26 26 27 27 28 28 28 28 28 27 27 26 26 26 26 26 26 25 26
5 6 8 9 10 11 12 13 14 15 16 16 17 17 17 17 18 18 19 20 22 23 24 25 25 26 26 26 26 27 27 27 28 28 28 28 29 29 30 30 30 30 30 29 27 26 26 26 26 26 26 26 26 27 28 28 28 28 27 27 26 25 25 25 24 25 25 26 27
6 7 8 10 11 12 13 14 15 16 16 16 17 17 17 17 18 19 20 21 22 23 24 25 26 26 26 26 27 27 27 27 28 28 28 28 29 29 30 30 30 30 30 29 28 27 26 26 26 26 26 26 26 27 27 28 28 27 26 26 25 25 25 24 24 25 26 27 28
7 8 9 11 12 13 14 14 15 16 16 16 17 17 17 18 19 19 20 21 22 23 24 25 26 26 26 26 27 27 27 28 28 28 28 28 29 29 30 30 30 31 31 30 28 27 26 26 26 27 27 26 26 27 28 28 27 27 27 26 25 25 25 25 25 26 27 28 29
7 9 10 11 12 13 14 15 15 16 16 17 17 17 18 18 19 20 21 22 23 24 25 25 26 26 26 26 27 27 27 28 28 28 28 28 28 29 30 30 31 31 31 29 28 26 26 27 27 27 27 27 27 27 28 28 27 27 27 26 26 26 26 25 25 26 27 29 30
8 10 11 12 13 14 14 15 15 16 16 17 17 18 18 19 20 20 21 22 23 24 25 25 25 26 26 26 27 27 27 28 28 28 28 28 28 29 30 30 31 31 30 28 27 26 27 27 27 27 27 27 27 27 28 28 28 28 27 27 27 26 26 26 26 27 28 29 30
9 10 11 12 13 14 14 15 16 16 17 17 18 18 19 20 20 21 22 23 23 24 24 24 25 25 26 26 26 27 27 28 28 28 28 28 28 29 30 30 30 30 29 28 27 27 27 27 27 28 28 27 27 27 28 28 27 27 27 27 26 26 26 26 26 27 29 30 31
10 11 12 12 13 14 15 15 16 17 17 18 18 19 19 20 21 22 23 23 23 23 23 24 24 25 25 26 26 27 27 28 28 28 28 28 29 29 29 30 30 30 29 28 27 27 27 27 27 28 28 28 27 27 28 28 27 26 26 26 26 26 25 26 26 28 29 31 31
10 11 12 13 13 14 15 16 17 17 18 18 19 20 20 21 21 22 23 23 23 23 23 24 24 25 26 26 26 27 27 28 28 28 28 28 28 29 29 30 30 31 30 29 28 27 27 27 27 28 28 27 28 28 27 27 26 26 25 25 25 25 25 26 27 28 30 31 31
11 11 12 13 14 14 15 16 17 18 18 19 20 20 21 21 22 22 23 23 23 23 24 24 25 25 26 27 27 27 27 28 28 29 29 28 28 28 29 30 31 31 30 29 28 27 27 27 27 27 27 27 28 27 27 26 25 25 25 25 25 26 26 26 27 28 30 31 31
10 11 12 13 14 15 16 17 18 18 19 20 20 21 21 22 22 22 22 22 22 23 24 25 25 26 26 27 28 28 28 28 28 28 28 28 28 29 29 30 31 31 30 29 28 27 27 27 27 27 27 27 27 26 26 25 24 24 25 25 25 26 26 26 27 28 29 30 32
10 11 12 13 15 16 17 17 18 19 20 20 20 21 21 22 22 22 22 22 22 23 24 25 26 26 27 28 28 28 28 28 28 28 28 29 29 29 29 30 30 31 30 29 28 27 27 27 27 26 26 26 26 26 25 24 24 24 24 25 25 25 25 25 26 27 28 30 31
11 11 13 14 15 16 17 18 19 19 20 20 21 21 21 22 22 22 22 22 22 23 24 25 26 27 28 28 28 28 29 29 28 28 28 29 29 29 28 29 30 30 30 29 29 28 27 26 26 25 25 25 25 25 24 24 24 24 24 24 24 25 24 24 24 26 27 29 30
11 12 14 15 16 17 18 19 19 20 20 20 21 21 22 22 22 22 23 23 23 24 25 26 27 27 28 28 27 28 29 30 30 29 29 29 29 28 28 28 29 30 30 29 29 27 26 25 25 24 24 24 24 25 24 24 23 24 24 24 24 24 24 23 23 24 26 28 28
13 13 15 16 17 18 19 19 20 20 20 20 21 21 22 22 22 23 23 24 24 25 25 26 27 27 28 28 28 28 29 30 30 30 30 29 29 28 28 28 29 29 29 29 28 27 25 24 24 23 23 23 24 24 24 24 23 24 24 25 24 24 23 23 23 23 24 25 25
Wind_Direction
182 187 192 196 199 200 202 207 233 285 307 315 318 320 321 321 322 322 323 323 324 324 323 323 322 321 320 319 317 316 315 314 313 312 312 311 311 311 312 312 312 313 314 314 315 315 316 316 316 316 316 316 316 316 316 316 316 316 315 314 313 312 311 309 308 308 307 307 306
177 181 184 188 190 189 186 186 205 260 296 307 314 317 319 320 321 322 322 323 323 323 322 321 320 319 318 317 316 315 314 313 312 311 311 311 311 311 312 312 313 313 314 315 315 316 317 318 318 318 318 318 318 318 318 318 318 318 317 315 314 313 312 310 309 308 308 307 307
172 175 178 179 179 177 178 183 207 263 295 307 312 316 318 320 320 321 321 321 321 320 320 319 318 317 316 315 313 312 312 312 312 312 311 311 311 312 313 313 314 314 315 316 317 317 318 319 320 320 320 320 320 320 320 320 320 319 318 316 315 314 312 310 309 309 308 307 306
169 170 172 174 176 178 183 193 223 277 302 311 314 317 318 318 318 317 317 317 317 317 316 316 315 314 313 312 311 311 311 311 312 312 312 312 312 313 314 314 315 316 317 317 318 319 319 320 320 321 321 321 321 321 321 321 321 320 317 315 314 313 312 311 310 310 309 308 307
165 168 171 175 178 181 183 193 237 295 308 312 314 315 315 315 314 314 313 313 313 313 313 312 311 310 310 309 309 310 310 310 311 312 313 313 314 314 315 316 317 318 318 319 319 320 320 321 321 321 321 322 322 321 321 321 321 319 316 315 314 313 312 311 311 310 309 308 307
163 168 173 175 175 174 177 201 272 301 308 311 311 312 312 312 311 311 310 310 310 310 309 308 308 308 308 308 308 309 310 310 312 313 314 315 315 316 317 318 318 319 319 320 320 320 321 321 321 321 321 321 321 321 321 321 319 317 316 314 314 313 313 312 311 311 310 309 307
164 166 168 170 170 174 190 237 285 303 308 310 311 311 311 310 309 308 307 307 307 307 307 306 307 307 308 308 309 310 311 312 313 314 316 317 317 318 318 319 319 319 320 320 320 321 321 321 321 321 321 321 320 320 319 319 318 316 315 314 314 314 313 313 312 311 310 309 307
165 165 166 168 175 190 221 264 294 306 309 310 310 311 310 308 307 306 306 306 306 306 307 307 308 308 309 309 310 312 313 315 316 317 317 318 318 319 319 319 319 319 319 320 320 320 321 321 320 320 319 319 319 318 318 318 317 316 315 315 315 314 314 313 312 311 310 309 308
162 163 167 174 185 206 247 288 306 312 313 313 312 310 309 308 307 306 306 307 307 308 308 309 309 310 310 311 313 314 316 317 318 319 319 319 319 319 319 320 319 319 319 320 320 320 320 320 319 318 318 318 317 317 317 318 317 316 316 315 314 314 314 313 313 312 311 309 308
159 163 170 178 189 209 270 312 321 322 321 319 317 315 312 310 309 309 309 309 310 310 311 311 312 312 313 314 315 317 318 319 319 320 320 320 320 320 320 320 320 319 319 320 320 320 320 319 318 317 317 317 317 317 317 317 317 316 315 314 314 314 313 313 313 312 311 309 308
160 164 168 171 171 169 349 341 340 337 334 330 326 322 318 315 314 313 313 313 313 313 314 316 316 316 316 317 318 319 320 320 321 321 320 320 320 320 320 320 320 320 320 320 320 320 319 318 317 317 317 317 317 317 316 317 316 315 314 314 313 313 312 312 312 312 310 309 308
157 157 154 147 127 69 23 6 358 352 346 340 334 329 325 321 320 318 317 316 316 317 318 320 320 319 320 320 321 322 322 322 322 322 321 321 321 321 321 320 320 320 320 320 320 320 319 318 317 317 317 317 317 316 316 316 315 314 313 313 313 311 311 311 311 311 310 309 307
149 145 137 121 84 47 25 13 6 359 352 346 340 335 330 328 326 324 322 321 321 321 322 323 323 323 323 323 324 324 324 324 324 323 323 322 322 322 322 321 321 321 321 321 321 320 319 318 318 317 317 316 316 316 316 316 315 313 312 312 311 310 310 310 310 310 310 309 307
142 135 121 93 60 37 24 15 8 2 356 351 346 341 337 335 333 330 327 325 325 325 325 325 326 326 326 326 326 326 326 326 325 324 324 323 323 323 323 322 322 321 321 321 321 320 320 319 318 318 317 316 316 316 316 316 314 313 312 311 310 309 309 309 309 309 308 307 307
136 123 99 69 47 32 22 15 9 4 360 356 353 349 346 342 339 336 331 329 328 327 327 327 327 328 328 328 328 328 327 327 326 326 325 325 324 324 323 323 322 322 322 322 321 321 320 319 319 318 317 316 316 316 316 316 314 313 312 311 309 309 308 308 308 308 307 307 306
128 105 77 55 38 26 19 14 9 6 3 1 359 356 352 348 344 340 335 332 330 329 328 328 328 329 329 330 330 329 328 328 327 326 326 325 325 324 324 323 323 323 322 322 321 321 320 320 319 319 318 317 316 316 316 315 314 313 312 311 309 308 307 307 307 307 307 307 305
111 86 61 43 29 20 14 10 8 6 5 3 2 359 355 350 346 342 338 334 332 330 329 329 329 329 329 330 330 330 329 328 327 327 326 325 325 324 324 323 323 323 323 322 321 321 320 320 320 319 319 318 317 316 316 315 314 313 312 310 309 308 307 306 306 307 307 305 303
92 69 46 30 19 12 8 6 5 4 3 2 0 358 354 350 345 341 338 336 333 331 329 329 330 330 329 329 330 330 329 328 327 326 326 325 325 324 323 323 323 323 323 322 321 320 320 320 320 320 319 318 317 316 315 314 313 312 310 309 308 307 306 307 307 306 305 302 300
75 52 31 16 7 2 360 359 359 359 359 358 356 353 350 347 343 340 338 337 335 332 330 329 329 330 329 329 329 329 328 327 326 326 325 325 324 324 323 323 323 323 322 321 321 320 320 321 321 320 319 318 317 316 315 313 312 310 309 308 307 306 306 307 306 305 302 300 299
58 35 14 1 354 351 351 352 353 353 353 351 348 346 343 341 339 337 336 335 334 333 331 329 329 329 329 329 329 328 328 327 326 325 325 324 324 324 323 323 323 322 322 321 321 321 321 321 321 320 319 318 316 315 313 312 311 309 308 308 306 306 306 306 304 302 300 299 299
36 9 354 347 343 341 342 344 345 345 344 341 339 337 336 335 334 334 333 333 333 332 331 330 329 329 329 329 328 327 327 326 325 325 324 324 323 323 323 323 322 321 321 321 321 321 321 321 320 319 318 316 315 313 312 311 310 309 308 307 306 305 305 304 303 301 299 298 298
7 348 338 333 332 333 334 335 335 334 332 331 330 329 329 329 329 330 330 331 331 331 330 330 330 329 329 328 327 326 326 325 324 324 323 323 323 323 323 322 321 321 320 320 321 321 321 321 319 318 316 315 313 312 311 310 309 309 308 307 306 305 304 303 302 300 299 298 297
342 331 325 323 323 324 325 325 324 323 322 322 323 323 323 324 325 326 327 328 329 329 330 330 330 329 328 328 327 325 325 324 323 323 323 323 322 322 322 322 321 320 319 320 321 321 320 319 317 315 314 313 311 311 310 309 309 308 307 306 305 304 303 302 301 300 299 298 297
326 320 317 316 316 316 316 315 315 315 315 317 318 319 319 320 322 323 324 325 327 328 329 329 329 329 328 327 326 325 324 323 322 322 322 322 322 322 321 321 320 319 319 319 320 320 318 315 313 312 311 311 310 309 309 308 307 306 306 305 304 303 302 302 301 300 299 298 298
315 313 312 312 310 310 309 309 309 310 311 313 314 315 316 317 319 320 321 323 325 327 328 329 329 328 328 326 325 324 323 322 321 320 320 321 321 321 320 319 318 318 318 319 319 317 314 311 310 310 310 309 309 308 307 307 306 305 304 303 302 302 301 301 300 299 299 298 297
309 308 308 308 306 305 305 306 307 308 309 311 312 313 314 315 316 317 319 321 324 326 327 328 328 328 327 326 324 323 322 321 320 319 319 319 319 319 319 318 317 317 318 319 318 315 312 311 310 310 309 309 308 308 307 306 305 305 304 302 301 300 299 299 299 299 299 298 298
303 303 304 304 302 302 304 306 307 308 309 311 312 313 313 314 315 316 318 320 323 325 326 327 327 327 326 324 323 322 321 320 320 319 318 317 317 317 317 317 316 317 318 318 316 314 312 311 310 310 309 309 308 308 307 306 305 304 303 302 300 299 298 297 297 298 299 299 300
296 298 300 300 300 302 305 308 308 309 311 313 313 313 313 314 314 316 318 320 322 324 326 326 326 326 324 323 322 321 320 319 318 318 317 316 316 315 315 315 316 316 317 317 315 313 312 311 310 310 310 309 309 308 307 306 305 304 302 301 299 298 297 296 296 297 299 300 300
293 295 297 298 300 303 306 308 310 312 314 315 315 314 314 314 315 317 318 320 322 324 325 325 325 324 323 322 321 320 319 318 317 316 316 315 315 315 315 315 315 315 316 316 315 313 311 311 310 310 310 310 309 308 307 306 305 303 301 300 298 297 297 296 296 297 299 299 298
292 293 295 297 300 303 307 310 313 315 317 317 316 316 316 316 317 318 320 321 322 323 324 324 323 322 321 320 319 318 317 316 316 315 314 314 313 314 314 314 314 315 315 315 314 313 311 311 310 310 310 310 309 308 307 306 304 303 301 300 299 298 297 297 296 297 298 298 296
290 292 294 297 300 304 308 313 316 318 318 319 318 318 318 318 318 319 321 321 322 323 323 322 322 320 319 319 317 316 315 315 315 314 313 313 313 313 313 313 314 314 315 315 314 312 311 311 310 310 310 310 309 308 307 305 304 303 302 300 299 299 298 297 296 297 297 297 295
290 292 294 296 300 305 310 315 318 319 320 320 319 319 319 319 319 320 321 322 322 322 321 321 320 318 317 317 316 315 314 313 313 313 313 312 312 312 312 312 313 313 314 314 313 312 311 310 310 310 310 310 309 307 306 305 304 303 301 300 299 298 297 297 296 296 297 295 294
290 292 294 297 301 306 312 316 319 321 321 321 320 320 320 320 321 321 321 321 321 320 319 318 317 316 315 314 314 313 313 312 312 312 312 312 312 311 311 311 311 312 313 313 312 311 310 310 310 310 310 310 309 307 306 305 304 302 301 299 298 297 297 296 296 297 296 295 293
290 292 294 298 303 308 314 318 320 322 321 320 321 321 321 321 321 321 321 320 319 318 317 316 315 314 313 313 312 312 312 311 311 312 312 312 312 311 311 310 310 311 312 312 311 311 310 310 310 310 310 310 309 307 306 305 303 302 300 299 299 298 297 297 298 297 296 295 293
290 292 295 300 305 311 315 319 321 321 321 320 321 321 321 321 320 320 319 319 318 316 315 314 314 313 313 312 312 312 311 311 311 311 312 312 311 311 310 310 310 312 312 312 312 311 310 310 310 310 310 310 309 308 307 305 303 302 301 301 300 300 300 300 299 298 297 295 294
290 293 297 302 307 312 317 319 320 320 320 320 321 321 321 320 319 318 318 317 316 315 314 313 313 313 312 312 312 312 311 311 311 311 311 312 311 310 309 309 310 312 313 313 312 311 310 310 310 310 310 310 309 308 307 305 304 303 303 303 303 303 302 302 300 298 297 297 296
291 294 298 304 309 314 317 319 319 320 320 321 321 320 320 319 318 317 317 316 315 314 313 313 312 312 312 312 312 311 311 311 311 311 311 311 311 310 309 309 310 312 313 313 312 311 311 310 310 310 310 310 309 308 307 306 305 305 305 305 305 305 304 303 301 299 299 299 299
291 295 300 306 310 314 317 318 319 319 320 320 320 319 318 317 316 316 315 315 313 312 312 312 311 312 312 312 312 311 311 311 311 310 310 310 310 310 310 309 309 311 312 313 312 311 311 310 310 310 310 309 309 308 307 306 306 306 306 306 306 306 305 304 302 300 300 301 301
292 297 302 308 312 314 316 317 318 319 319 319 318 318 317 316 315 314 314 314 312 311 311 311 311 311 312 312 311 311 311 311 311 310 310 310 310 310 310 309 308 310 311 313 312 311 311 310 309 310 310 309 308 308 307 307 307 306 306 306 306 306 305 303 302 301 301 302 301
294 299 305 309 312 314 315 317 317 318 318 318 317 316 315 314 313 313 313 313 312 312 311 310 310 311 312 312 311 310 310 311 311 311 311 310 311 311 310 309 308 310 312 313 313 312 310 309 309 309 309 309 308 308 308 308 307 306 306 305 304 303 303 302 302 301 301 301 300
296 301 306 310 312 314 315 316 317 317 317 316 315 314 314 313 313 313 313 313 313 312 311 311 310 311 312 311 311 310 310 310 311 311 312 311 311 311 311 310 310 311 312 313 314 313 310 309 308 309 309 309 309 309 309 309 307 305 304 303 301 300 299 300 300 300 300 300 302